2E1HJE-10 Weather Reports


Display with metric or nautical units.
time (UTC)temp
F
wind
direction
speed
MPH
gust
MPH
rain 1hr
in
rain 24hr
in
rain mn
in
humidity
%
barometer
mb
20260510091827 55 42 19.0 36.0 0.00 0.00 0.00 61 1017.1
20260510081827 54 44 19.0 34.0 0.00 0.00 0.00 68 1017.5
20260510075827 54 40 17.0 29.0 0.00 0.00 0.00 76 1017.6
20260510072827 53 40 16.0 29.0 0.00 0.00 0.00 78 1017.4
20260510071827 53 40 16.0 29.0 0.00 0.00 0.00 78 1017.4
20260510070827 53 40 15.0 29.0 0.00 0.00 0.00 78 1017.4
20260510064828 52 39 15.0 28.0 0.00 0.00 0.00 82 1017.4
20260510062827 52 37 15.0 28.0 0.00 0.00 0.00 82 1017.4
20260510061829 52 37 15.0 28.0 0.00 0.00 0.00 83 1017.4
20260510060828 52 36 15.0 28.0 0.00 0.00 0.00 83 1017.4
20260510055827 52 34 14.0 24.0 0.00 0.00 0.00 86 1017.3
20260510054827 52 34 14.0 24.0 0.00 0.00 0.00 86 1017.3
20260510053827 51 32 14.0 24.0 0.00 0.00 0.00 86 1017.3
20260510050827 50 30 12.0 23.0 0.00 0.00 0.00 87 1017.3
20260510044827 50 27 12.0 18.0 0.00 0.00 0.00 96 1017.0
20260510042827 49 21 10.0 18.0 0.00 0.00 0.00 96 1017.0
20260510041827 49 21 10.0 18.0 0.00 0.00 0.00 96 1017.0
20260510040827 48 18 9.0 18.0 0.00 0.00 0.00 96 1017.0
20260510035827 48 17 9.0 17.0 0.00 0.00 0.00 93 1017.1
20260510034827 48 17 9.0 17.0 0.00 0.00 0.00 93 1017.1
20260510033827 48 15 9.0 17.0 0.00 0.00 0.00 93 1017.1
20260510024828 48 21 8.0 15.0 0.00 0.00 0.00 73 1017.7
20260510023827 49 26 9.0 17.0 0.00 0.00 0.00 67 1017.7
20260510013827 51 43 8.0 14.0 0.00 0.00 0.00 67 1017.9
20260510010827 51 44 7.0 14.0 0.00 0.00 0.00 67 1017.9
20260510003827 51 47 7.0 15.0 0.00 0.00 0.00 70 1017.9
20260509234830 51 50 7.0 15.0 0.00 0.00 0.00 68 1017.9
20260509233828 52 52 7.0 15.0 0.00 0.00 0.00 68 1017.9
20260509232828 52 54 7.0 14.0 0.00 0.00 0.00 68 1017.9
20260509231827 51 55 7.0 14.0 0.00 0.00 0.00 71 1018.0
20260509230827 51 56 7.0 14.0 0.00 0.00 0.00 71 1018.0
20260509223827 52 58 7.0 14.0 0.00 0.00 0.00 70 1018.1
20260509221828 51 59 7.0 14.0 0.00 0.00 0.00 70 1018.1
20260509220827 52 60 7.0 14.0 0.00 0.00 0.00 70 1018.1
20260509215828 52 60 7.0 14.0 0.00 0.00 0.00 71 1017.9
20260509213827 52 60 6.0 13.0 0.00 0.00 0.00 71 1017.9
20260509212827 52 63 6.0 13.0 0.00 0.00 0.00 71 1017.9
20260509211827 52 63 6.0 13.0 0.00 0.00 0.00 72 1017.9
20260509204827 53 64 6.0 14.0 0.00 0.00 0.00 76 1017.8
20260509202827 53 64 6.0 13.0 0.00 0.00 0.00 77 1017.7
20260509201827 53 64 6.0 13.0 0.00 0.00 0.00 77 1017.7
20260509190827 56 54 7.0 14.0 0.00 0.00 0.00 70 1017.4
20260509172828 61 58 12.0 23.0 0.00 0.00 0.00 47 1016.9
20260509142826 64 69 13.0 26.0 0.00 0.00 0.00 46 1017.3
20260509140827 64 68 13.0 26.0 0.00 0.00 0.00 49 1017.4
20260509134828 64 66 13.0 26.0 0.00 0.00 0.00 49 1017.8
20260509133827 64 64 13.0 26.0 0.00 0.00 0.00 49 1017.8
20260509132827 64 62 13.0 26.0 0.00 0.00 0.00 49 1017.8
20260509131826 64 62 13.0 26.0 0.00 0.00 0.00 49 1017.8
20260509120827 63 62 13.0 26.0 0.00 0.00 0.00 52 1017.7
20260509115826 63 63 13.0 24.0 0.00 0.00 0.00 54 1018.0
20260509114826 63 63 13.0 24.0 0.00 0.00 0.00 54 1018.0
20260509111827 62 62 13.0 25.0 0.00 0.00 0.00 53 1018.1
20260509105826 62 63 13.0 23.0 0.00 0.00 0.00 55 1018.4
20260509103827 62 63 12.0 23.0 0.00 0.00 0.00 54 1018.3
20260509102826 62 63 12.0 23.0 0.00 0.00 0.00 54 1018.3
20260509100826 62 62 12.0 23.0 0.00 0.00 0.00 54 1018.3